Wind_Speed
17 17 16 14 13 12 11 9 8 6 5 3 3 5 6 8 9 10 12 13 15 15 15 15 15 14 13 12 11 11 11 11 8 6 4 3 3 2 2 2 2 2 3 2
19 18 17 17 15 14 13 11 10 9 8 7 6 5 6 8 9 10 11 12 13 14 14 15 14 14 12 11 11 11 11 10 8 6 5 3 2 3 3 3 3 3 4 4
20 20 18 18 17 16 15 13 12 11 10 10 9 7 8 9 10 10 11 12 13 13 13 13 13 13 12 10 10 11 10 9 8 6 5 4 4 4 4 4 4 4 4 5
21 20 20 19 18 17 17 15 14 13 13 12 12 10 9 10 10 10 11 12 12 12 13 13 12 12 12 10 10 10 10 9 8 7 6 5 4 4 4 4 4 4 4 5
23 22 21 20 19 18 18 17 16 14 14 14 13 13 11 11 10 10 11 11 11 13 13 13 13 12 12 10 10 10 10 9 8 7 6 5 4 4 5 5 5 5 5 5
25 24 22 21 20 19 19 18 17 16 15 15 14 14 12 12 12 11 11 10 12 13 14 14 13 12 12 11 11 10 10 9 8 7 7 6 5 5 5 5 5 5 5 5
27 26 24 23 22 20 20 19 18 17 17 17 15 14 12 11 11 10 10 10 11 13 14 14 13 13 12 13 12 11 11 9 7 7 7 7 6 6 6 5 5 5 5 5
28 27 26 25 23 22 21 19 19 18 18 17 17 15 13 11 11 10 9 11 12 13 14 14 14 13 13 14 13 12 11 10 8 8 8 8 7 7 6 5 5 5 5 5
29 28 27 27 25 24 23 22 20 20 19 19 18 16 14 12 12 11 11 12 12 12 14 16 15 13 14 14 14 11 10 9 9 9 9 8 8 7 6 5 6 6 6 7
31 30 29 29 28 27 25 24 22 21 21 20 19 17 15 13 13 13 12 12 12 13 14 15 15 15 15 15 15 13 11 10 10 9 9 8 8 8 7 7 7 7 7 8
33 32 31 31 30 29 27 26 24 23 21 21 20 18 16 14 14 13 13 13 13 14 14 15 14 14 15 15 14 12 11 10 9 8 8 8 8 8 8 8 9 9 9 9
33 33 32 32 31 31 29 27 25 24 23 22 22 19 16 15 15 14 14 14 14 14 14 15 15 14 14 14 13 12 11 10 9 8 8 8 8 9 9 10 10 10 10 10
34 34 33 33 33 31 30 28 27 26 25 24 24 21 18 17 16 16 15 15 15 15 15 16 16 15 15 13 12 12 11 11 10 9 9 9 9 10 10 10 11 11 11 11
35 35 33 32 31 30 30 29 28 27 26 26 25 22 20 19 18 18 17 17 16 15 16 17 17 16 16 13 12 13 11 11 10 10 9 9 10 11 11 12 11 11 12 13
36 35 34 33 31 31 31 30 29 29 27 26 24 23 21 20 19 19 18 17 16 16 17 17 17 17 15 14 13 13 12 11 11 10 10 11 11 12 12 12 12 12 12 13
36 36 35 34 33 32 32 32 32 31 29 27 26 23 21 21 20 19 18 18 17 17 17 18 17 16 15 15 14 13 13 12 12 12 12 12 12 12 13 13 13 13 13 13
37 36 35 35 33 33 34 33 33 33 31 29 27 25 23 21 20 19 19 18 18 17 18 18 17 17 17 16 15 14 14 13 14 13 13 13 13 13 14 14 14 14 14 15
36 36 35 34 34 35 34 33 33 34 33 32 30 27 25 23 21 20 19 19 19 19 19 19 19 19 19 18 17 16 15 15 16 16 15 15 16 15 15 15 15 15 16 16
37 37 36 36 36 37 36 34 33 33 33 32 31 29 27 25 24 22 20 20 20 21 22 22 22 22 21 19 19 18 18 17 18 18 17 16 17 17 17 17 17 17 17 17
38 38 38 37 37 38 36 35 34 34 34 32 31 30 29 27 26 23 22 22 22 22 23 23 23 23 21 20 21 20 19 19 20 19 18 18 18 18 19 19 19 18 18 18
39 39 39 39 38 38 36 35 34 35 34 33 32 31 30 29 27 26 25 25 24 23 23 23 23 23 22 22 22 21 21 21 20 20 20 20 20 20 20 20 20 19 19 19
40 40 41 40 40 39 37 35 35 35 34 34 32 31 30 29 29 28 27 27 26 26 26 25 24 24 23 23 23 22 22 22 22 21 21 21 21 21 20 20 20 20 20 20
42 42 41 42 41 40 38 37 36 35 34 34 33 32 31 30 30 29 29 30 30 29 28 27 27 26 26 25 24 24 24 24 25 24 23 23 22 22 21 21 21 21 22 22
43 43 42 42 42 41 39 38 36 35 35 35 34 33 32 32 32 32 32 32 33 32 30 29 30 29 28 28 27 27 27 27 26 26 25 25 24 24 24 24 23 23 24 24
43 43 43 42 42 41 40 39 37 36 35 35 35 35 35 34 34 33 34 34 35 33 33 31 30 30 30 30 29 29 28 28 28 27 27 26 26 25 25 25 25 25 26 25
42 42 42 42 42 42 41 40 39 37 36 35 35 36 36 36 36 34 34 36 37 36 35 33 32 32 31 31 31 31 30 30 30 29 28 28 27 27 27 27 27 27 27 27
Wind_Direction
216 215 213 215 218 224 229 233 240 248 257 279 311 337 352 352 353 356 358 1 4 3 3 0 358 355 356 358 360 1 3 4 5 354 340 329 329 318 299 293 292 264 252 239
216 216 217 217 220 227 233 239 245 254 261 271 293 316 331 338 342 343 351 356 359 360 358 358 354 352 351 353 354 355 359 2 1 355 340 324 310 288 278 281 278 275 265 255
219 220 220 219 223 229 237 241 246 253 261 272 287 299 311 320 332 338 343 347 350 353 354 353 351 353 349 347 350 351 353 355 354 354 354 324 308 297 285 276 266 268 266 261
220 222 221 222 227 234 236 241 247 253 259 270 280 286 297 307 321 330 334 337 341 343 345 344 347 345 342 344 348 347 348 352 349 346 339 331 319 309 301 293 279 274 262 259
221 223 222 225 231 234 235 241 247 253 259 266 274 283 292 300 310 316 323 331 337 340 339 339 340 339 335 338 342 343 339 343 345 343 333 334 333 314 305 299 286 277 269 273
223 224 224 227 232 234 236 241 246 251 255 259 268 277 287 297 305 310 317 329 339 341 339 336 334 331 329 331 335 338 332 332 336 341 335 329 320 313 304 298 287 281 276 277
225 226 227 229 231 234 237 241 246 250 253 258 265 272 285 298 304 307 315 325 337 343 340 333 331 329 330 332 330 325 327 326 327 329 330 324 319 308 299 292 288 287 282 282
226 226 227 228 230 234 238 242 247 252 254 259 263 268 280 290 299 304 312 321 328 333 337 333 328 330 334 332 328 321 323 323 321 321 322 320 315 306 297 291 284 283 284 283
226 226 227 228 230 233 237 240 245 250 254 257 261 267 271 278 288 298 309 314 322 329 333 335 336 335 335 333 330 324 322 321 318 317 318 316 313 304 292 284 280 278 277 280
225 225 226 228 230 233 236 239 242 247 252 256 260 266 273 275 279 291 304 310 312 322 330 334 333 332 331 332 330 322 320 318 315 312 313 314 309 304 292 284 285 281 279 279
228 227 226 228 231 233 236 239 243 248 253 257 262 266 271 271 275 285 297 303 308 314 322 328 329 331 334 331 329 324 318 315 314 312 310 307 307 303 297 291 291 286 284 279
229 229 227 228 231 234 236 239 243 247 253 257 262 266 266 269 273 279 287 296 305 311 316 324 330 331 331 333 335 334 327 323 318 312 309 307 304 305 301 296 295 291 286 283
229 230 228 227 231 235 238 240 244 248 251 255 261 265 264 268 273 277 282 290 298 307 313 318 324 327 328 329 332 333 329 325 321 312 305 305 305 306 307 304 298 295 288 283
229 230 230 230 233 236 238 240 243 246 251 256 262 265 264 266 271 277 282 288 294 301 308 313 318 322 324 324 324 325 325 324 322 317 312 307 305 304 304 305 302 298 290 282
230 230 229 228 229 232 236 238 241 245 250 255 261 264 265 268 271 274 278 283 289 297 304 308 316 321 321 320 320 320 322 322 322 317 310 307 303 303 305 304 299 295 296 291
230 231 230 230 230 233 235 237 240 243 248 253 257 263 267 269 270 271 275 280 285 294 299 304 309 313 314 315 315 313 313 315 318 318 310 306 305 303 302 303 302 299 297 296
230 232 233 233 232 234 235 237 240 242 246 251 256 262 267 270 269 270 272 275 281 289 292 298 300 303 306 305 304 302 301 305 309 311 309 306 304 303 300 300 301 299 297 295
229 232 234 235 234 236 238 238 242 245 247 251 255 260 266 268 265 266 269 271 277 285 289 293 296 297 299 298 296 296 297 301 304 304 303 302 301 299 297 297 299 298 296 295
231 232 234 236 237 239 240 240 242 245 248 251 254 257 262 264 264 266 269 271 276 281 286 291 292 291 291 291 296 298 298 298 299 298 298 297 298 297 297 298 297 296 295 294
233 233 236 238 240 240 241 242 243 246 250 251 254 257 258 261 262 264 266 270 274 278 282 288 292 288 286 287 293 296 297 297 297 294 295 295 296 295 294 294 294 295 295 295
233 234 236 239 241 242 243 244 245 248 251 253 255 256 256 258 259 260 263 267 270 273 278 284 288 288 286 287 290 290 292 294 295 291 290 292 293 292 291 291 291 293 293 295
235 236 237 238 241 243 243 246 247 250 252 254 255 255 255 255 256 257 259 263 267 269 273 279 284 285 285 288 288 287 289 292 294 294 292 290 291 291 290 290 290 291 292 293
236 237 238 239 241 243 243 246 248 250 252 253 255 254 253 253 254 253 256 259 262 267 270 273 279 283 285 289 289 289 289 291 294 295 295 293 289 289 288 289 290 291 291 291
236 237 239 241 242 243 243 244 246 249 251 252 254 254 253 253 253 253 255 259 262 264 267 271 276 281 285 288 289 291 292 290 292 294 294 294 292 292 292 292 291 292 293 291
236 237 238 240 241 243 244 244 245 248 249 251 252 253 253 255 256 256 256 259 261 262 266 270 273 279 283 285 287 289 290 288 290 291 292 292 290 291 292 294 294 295 295 293
236 237 237 239 241 243 244 244 245 247 248 249 250 252 252 253 254 255 256 259 260 261 265 268 272 276 280 283 285 286 287 287 287 288 288 289 289 288 289 291 292 294 294 292
Height
5916 5919 5920 5922 5924 5925 5926 5927 5928 5928 5929 5929 5929 5929 5930 5929 5928 5926 5925 5922 5921 5919 5916 5914 5912 5910 5908 5906 5905 5903 5901 5899 5898 5897 5896 5896 5896 5896 5896 5895 5895 5896 5896 5896
5915 5917 5919 5920 5922 5924 5925 5926 5927 5927 5928 5928 5929 5929 5929 5928 5927 5926 5924 5923 5921 5919 5916 5914 5912 5909 5908 5906 5905 5903 5902 5900 5898 5897 5896 5895 5895 5895 5895 5895 5895 5895 5895 5895
5912 5914 5916 5919 5921 5922 5924 5925 5926 5926 5927 5927 5928 5928 5928 5928 5927 5926 5924 5922 5920 5918 5916 5914 5912 5910 5908 5906 5904 5903 5902 5900 5898 5897 5896 5895 5895 5894 5894 5894 5894 5894 5893 5894
5908 5911 5914 5916 5919 5920 5922 5923 5924 5925 5925 5926 5927 5927 5928 5927 5926 5925 5923 5921 5920 5918 5915 5913 5911 5909 5907 5905 5904 5902 5901 5900 5898 5896 5895 5895 5894 5894 5893 5893 5893 5893 5893 5893
5905 5908 5911 5914 5916 5918 5920 5920 5922 5923 5923 5924 5925 5925 5927 5925 5925 5924 5922 5920 5919 5917 5915 5913 5910 5908 5906 5904 5903 5901 5900 5899 5897 5896 5895 5894 5893 5893 5893 5892 5892 5892 5892 5892
5902 5905 5908 5911 5913 5915 5917 5918 5920 5921 5921 5922 5923 5924 5924 5923 5923 5922 5921 5919 5918 5916 5914 5912 5910 5907 5905 5903 5902 5900 5899 5898 5897 5896 5895 5894 5893 5892 5892 5892 5891 5891 5891 5890
5898 5901 5905 5907 5910 5912 5914 5916 5918 5918 5919 5920 5921 5921 5922 5922 5921 5920 5919 5918 5917 5915 5913 5911 5908 5906 5903 5902 5900 5899 5898 5896 5895 5895 5894 5893 5892 5891 5890 5890 5890 5890 5889 5889
5894 5898 5901 5904 5906 5909 5911 5913 5915 5916 5916 5917 5918 5918 5920 5920 5919 5918 5917 5916 5915 5913 5911 5909 5907 5905 5902 5900 5898 5897 5896 5895 5894 5893 5893 5892 5890 5890 5889 5889 5889 5888 5888 5888
5889 5893 5897 5899 5902 5905 5907 5909 5911 5912 5913 5914 5915 5916 5917 5917 5917 5916 5916 5915 5913 5912 5910 5908 5905 5903 5901 5898 5896 5895 5894 5893 5892 5892 5891 5890 5889 5888 5887 5887 5887 5887 5887 5887
5883 5888 5891 5894 5897 5900 5903 5905 5907 5908 5909 5911 5912 5913 5915 5915 5915 5915 5914 5913 5912 5911 5909 5906 5904 5901 5899 5897 5895 5893 5892 5891 5890 5890 5889 5888 5887 5886 5886 5886 5885 5885 5885 5885
5878 5882 5886 5889 5892 5895 5899 5901 5902 5904 5906 5908 5909 5912 5912 5912 5913 5912 5912 5911 5910 5909 5907 5904 5902 5900 5898 5895 5893 5892 5890 5889 5888 5888 5887 5886 5886 5885 5884 5884 5884 5883 5883 5882
5872 5876 5880 5884 5887 5889 5893 5896 5898 5901 5902 5903 5905 5910 5908 5909 5909 5910 5909 5909 5908 5906 5905 5903 5901 5899 5896 5894 5892 5890 5889 5888 5887 5886 5885 5884 5884 5883 5883 5882 5881 5881 5880 5880
5866 5870 5875 5879 5883 5886 5888 5891 5894 5896 5898 5899 5901 5906 5905 5905 5906 5906 5906 5906 5905 5904 5902 5900 5899 5897 5895 5893 5891 5890 5888 5887 5885 5884 5883 5882 5882 5881 5881 5880 5879 5878 5877 5877
5860 5864 5870 5875 5878 5881 5883 5886 5889 5891 5893 5894 5897 5899 5901 5901 5902 5903 5903 5903 5902 5901 5900 5899 5897 5895 5893 5891 5890 5889 5887 5886 5884 5882 5881 5881 5880 5879 5878 5877 5876 5875 5874 5873
5853 5858 5863 5867 5871 5874 5877 5880 5883 5885 5888 5890 5892 5894 5896 5897 5898 5899 5899 5899 5899 5898 5898 5896 5895 5893 5891 5890 5888 5887 5885 5884 5882 5881 5880 5879 5878 5877 5875 5874 5873 5872 5871 5870
5847 5852 5856 5861 5865 5868 5871 5874 5877 5880 5882 5885 5887 5890 5892 5892 5893 5894 5895 5895 5895 5895 5894 5893 5892 5891 5890 5888 5886 5885 5883 5882 5880 5879 5878 5876 5875 5874 5873 5871 5870 5869 5868 5867
5840 5845 5850 5854 5859 5861 5864 5868 5871 5874 5876 5879 5882 5885 5886 5888 5889 5890 5891 5891 5891 5891 5890 5889 5889 5888 5887 5885 5884 5882 5881 5879 5877 5876 5875 5873 5872 5871 5869 5868 5867 5865 5864 5863
5834 5838 5843 5847 5852 5854 5860 5862 5865 5868 5870 5873 5876 5879 5881 5883 5884 5885 5886 5886 5886 5886 5885 5885 5884 5883 5882 5881 5880 5879 5877 5876 5874 5873 5871 5870 5868 5867 5866 5864 5863 5862 5861 5859
5827 5831 5835 5839 5843 5847 5851 5855 5858 5861 5864 5867 5870 5873 5875 5877 5878 5880 5881 5881 5881 5881 5881 5880 5879 5878 5878 5877 5876 5874 5873 5872 5870 5868 5866 5865 5864 5863 5861 5860 5859 5857 5856 5855
5819 5824 5828 5832 5835 5839 5845 5848 5851 5855 5857 5860 5863 5866 5869 5871 5873 5875 5875 5876 5876 5876 5876 5875 5874 5873 5872 5872 5871 5870 5869 5867 5865 5863 5862 5860 5859 5858 5857 5856 5854 5853 5852 5850
5811 5815 5819 5824 5827 5832 5837 5840 5845 5849 5851 5853 5856 5859 5861 5864 5866 5868 5868 5870 5870 5870 5870 5870 5869 5868 5868 5867 5866 5865 5864 5862 5860 5858 5857 5856 5854 5853 5852 5850 5849 5848 5847 5845
5802 5807 5811 5816 5820 5826 5829 5833 5837 5840 5843 5845 5848 5851 5854 5856 5858 5859 5861 5863 5863 5863 5863 5864 5863 5863 5862 5861 5861 5859 5858 5857 5855 5853 5852 5850 5849 5847 5846 5845 5844 5843 5841 5840
5793 5799 5803 5808 5813 5817 5821 5825 5829 5832 5835 5837 5840 5843 5846 5848 5850 5852 5853 5855 5856 5856 5856 5857 5857 5856 5855 5855 5854 5853 5852 5851 5849 5848 5846 5844 5843 5842 5841 5839 5838 5837 5835 5834
5785 5789 5794 5799 5803 5808 5812 5816 5820 5824 5827 5830 5832 5835 5838 5840 5842 5843 5845 5846 5847 5848 5849 5849 5850 5850 5849 5849 5848 5847 5846 5845 5844 5842 5841 5840 5838 5837 5835 5833 5831 5830 5829 5828
5776 5781 5785 5789 5794 5799 5803 5807 5811 5815 5818 5821 5824 5826 5829 5831 5833 5835 5836 5837 5838 5839 5840 5841 5842 5842 5842 5841 5841 5840 5839 5838 5837 5835 5834 5833 5832 5830 5828 5827 5825 5824 5823 5821
5767 5772 5777 5781 5786 5790 5794 5798 5802 5806 5809 5812 5815 5817 5820 5822 5824 5826 5827 5828 5830 5831 5832 5833 5834 5834 5834 5833 5833 5832 5831 5830 5829 5828 5827 5826 5824 5823 5821 5820 5818 5817 5815 5814